Location: ???? ?????
(30.0052°N, 31.2891°E)
Time: 08:05:11
(UTC+00:00)

SEDSat Delta rocket - Pass Details

Date: 13 October 2022
Orbit: 532 x 995 km, 31.4° (Epoch: 04 December)

Event Time Altitude Azimuth Distance (km) Brightness Sun altitude
Rises 15:54:05 0° 272° (W) 2,969 9.0 -6.8°
Reaches altitude 10° 15:56:48 10° 257° (WSW) 2,137 7.5 -7.3°
Maximum altitude 16:00:38 22° 207° (SSW) 1,589 5.6 -8.2°
Drops below altitude 10° 16:04:52 10° 158° (SSE) 2,378 5.9 -9.1°
Sets 16:08:04 0° 143° (SE) 3,401 6.5 -9.8°
